Time,TemperatureF,DewpointF,PressureIn,WindDirection,WindDirectionDegrees,WindSpeedMPH,WindSpeedGustMPH,Humidity,HourlyPrecipIn,Conditions,Clouds,dailyrainin,SoftwareType,DateUTC
2013-05-08 00:02:00,61.0,55.0,-100.00,SW,235,2.0,3.0,82,0.00,,,-99.99,,2013-05-08 04:02:00,
2013-05-08 00:13:00,60.0,55.0,-100.00,SW,230,1.0,1.0,84,0.00,,,-99.99,,2013-05-08 04:13:00,
2013-05-08 00:23:00,59.0,55.0,-100.00,WSW,255,1.0,3.0,85,0.00,,,-99.99,,2013-05-08 04:23:00,
2013-05-08 00:33:00,58.0,54.0,-100.00,WSW,250,1.0,2.0,86,0.00,,,-99.99,,2013-05-08 04:33:00,
2013-05-08 00:43:00,58.0,54.0,-100.00,SW,235,1.0,2.0,87,0.00,,,-99.99,,2013-05-08 04:43:00,
2013-05-08 00:52:00,58.0,54.0,-100.00,WNW,290,0.0,1.0,88,0.00,,,-99.99,,2013-05-08 04:52:00,
2013-05-08 01:02:00,58.0,54.0,-100.00,NNW,340,1.0,1.0,89,0.00,,,-99.99,,2013-05-08 05:02:00,
2013-05-08 01:12:00,57.0,54.0,-100.00,North,-999,-999.0,-999.0,89,0.00,,,-99.99,,2013-05-08 05:12:00,
2013-05-08 01:22:00,57.0,54.0,-100.00,SW,235,0.0,1.0,90,0.00,,,-99.99,,2013-05-08 05:22:00,
2013-05-08 01:32:00,56.0,53.0,-100.00,West,275,0.0,1.0,90,0.00,,,-99.99,,2013-05-08 05:32:00,
2013-05-08 01:42:00,56.0,53.0,-100.00,West,270,0.0,1.0,91,0.00,,,-99.99,,2013-05-08 05:42:00,
2013-05-08 01:52:00,56.0,53.0,-100.00,North,-999,-999.0,-999.0,91,0.00,,,-99.99,,2013-05-08 05:52:00,
2013-05-08 02:01:00,56.0,53.0,-100.00,NNW,340,0.0,1.0,91,0.00,,,-99.99,,2013-05-08 06:01:00,
2013-05-08 02:12:00,55.0,53.0,-100.00,West,265,0.0,1.0,92,0.00,,,-99.99,,2013-05-08 06:12:00,
2013-05-08 02:21:00,55.0,53.0,-100.00,SSW,210,0.0,1.0,92,0.00,,,-99.99,,2013-05-08 06:21:00,
2013-05-08 02:32:00,55.0,53.0,-100.00,North,-999,-999.0,-999.0,93,-99.99,,,-99.99,,2013-05-08 06:32:00,
2013-05-08 02:42:00,54.0,53.0,-100.00,North,0,1.0,2.0,93,0.00,,,-99.99,,2013-05-08 06:42:00,
2013-05-08 03:02:00,53.0,52.0,-100.00,South,190,0.0,1.0,93,0.00,,,-99.99,,2013-05-08 07:02:00,
2013-05-08 03:11:00,53.0,51.0,-100.00,SW,225,1.0,1.0,93,0.00,,,-99.99,,2013-05-08 07:11:00,
2013-05-08 03:21:00,54.0,52.0,-100.00,NE,35,1.0,2.0,94,0.00,,,-99.99,,2013-05-08 07:21:00,
2013-05-08 03:32:00,53.0,52.0,-100.00,East,100,1.0,2.0,94,0.00,,,-99.99,,2013-05-08 07:32:00,
2013-05-08 03:42:00,54.0,52.0,-100.00,NNE,30,1.0,2.0,94,0.00,,,-99.99,,2013-05-08 07:42:00,
2013-05-08 03:52:00,53.0,52.0,-100.00,NE,55,0.0,2.0,95,0.00,,,-99.99,,2013-05-08 07:52:00,
2013-05-08 04:02:00,53.0,52.0,-100.00,ENE,60,1.0,2.0,95,0.00,,,-99.99,,2013-05-08 08:02:00,
2013-05-08 04:12:00,53.0,52.0,-100.00,ENE,65,0.0,2.0,95,0.00,,,-99.99,,2013-05-08 08:12:00,
2013-05-08 04:21:00,53.0,52.0,-100.00,ESE,105,1.0,2.0,95,0.00,,,-99.99,,2013-05-08 08:21:00,
2013-05-08 04:32:00,53.0,52.0,-100.00,NNE,20,1.0,1.0,95,0.00,,,-99.99,,2013-05-08 08:32:00,
2013-05-08 04:42:00,53.0,52.0,-100.00,NE,50,0.0,3.0,95,0.00,,,-99.99,,2013-05-08 08:42:00,
2013-05-08 04:51:00,52.0,51.0,-100.00,NNW,330,1.0,2.0,95,0.00,,,-99.99,,2013-05-08 08:51:00,
2013-05-08 05:02:00,51.0,50.0,-100.00,WSW,245,0.0,1.0,95,0.00,,,-99.99,,2013-05-08 09:02:00,
2013-05-08 05:11:00,52.0,51.0,-100.00,North,350,1.0,2.0,96,0.00,,,-99.99,,2013-05-08 09:11:00,
2013-05-08 05:21:00,52.0,51.0,-100.00,NNE,30,1.0,4.0,96,0.00,,,-99.99,,2013-05-08 09:21:00,
2013-05-08 05:32:00,52.0,51.0,-100.00,NNE,20,1.0,4.0,96,0.00,,,-99.99,,2013-05-08 09:32:00,
2013-05-08 05:42:00,53.0,52.0,-100.00,NNE,15,1.0,4.0,96,0.00,,,-99.99,,2013-05-08 09:42:00,
2013-05-08 05:52:00,53.0,52.0,-100.00,NNW,345,1.0,4.0,96,0.00,,,-99.99,,2013-05-08 09:52:00,
2013-05-08 06:02:00,52.0,51.0,-100.00,NNW,340,1.0,4.0,96,0.00,,,-99.99,,2013-05-08 10:02:00,
2013-05-08 06:12:00,53.0,52.0,-100.00,North,10,1.0,4.0,96,0.00,,,-99.99,,2013-05-08 10:12:00,
2013-05-08 06:22:00,53.0,52.0,-100.00,North,0,1.0,4.0,96,0.00,,,-99.99,,2013-05-08 10:22:00,
2013-05-08 06:33:00,53.0,52.0,-100.00,West,280,0.0,5.0,96,0.00,,,-99.99,,2013-05-08 10:33:00,
2013-05-08 06:42:00,53.0,52.0,-100.00,West,280,1.0,2.0,96,0.00,,,-99.99,,2013-05-08 10:42:00,
2013-05-08 06:52:00,55.0,54.0,-100.00,North,0,2.0,4.0,96,0.00,,,-99.99,,2013-05-08 10:52:00,
2013-05-08 07:02:00,55.0,54.0,-100.00,North,0,1.0,4.0,95,0.00,,,-99.99,,2013-05-08 11:02:00,
2013-05-08 07:11:00,56.0,55.0,-100.00,NNE,25,1.0,4.0,95,0.00,,,-99.99,,2013-05-08 11:11:00,
2013-05-08 07:22:00,57.0,55.0,-100.00,North,0,1.0,4.0,93,0.00,,,-99.99,,2013-05-08 11:22:00,
2013-05-08 07:32:00,58.0,56.0,-100.00,West,275,1.0,3.0,91,0.00,,,-99.99,,2013-05-08 11:32:00,
2013-05-08 07:42:00,58.0,56.0,-100.00,NNW,335,2.0,4.0,90,0.00,,,-99.99,,2013-05-08 11:42:00,
2013-05-08 07:52:00,60.0,56.0,-100.00,North,5,2.0,6.0,86,0.00,,,-99.99,,2013-05-08 11:52:00,
2013-05-08 08:02:00,60.0,56.0,-100.00,North,355,2.0,4.0,85,0.00,,,-99.99,,2013-05-08 12:02:00,
2013-05-08 08:11:00,62.0,57.0,-100.00,North,350,2.0,5.0,81,0.00,,,-99.99,,2013-05-08 12:11:00,
2013-05-08 08:21:00,63.0,57.0,-100.00,East,100,1.0,5.0,80,0.00,,,-99.99,,2013-05-08 12:21:00,
2013-05-08 08:32:00,65.0,58.0,-100.00,NNE,30,1.0,5.0,77,0.00,,,-99.99,,2013-05-08 12:32:00,
2013-05-08 08:41:00,65.0,58.0,-100.00,East,100,1.0,5.0,77,0.00,,,-99.99,,2013-05-08 12:41:00,
2013-05-08 08:51:00,67.0,59.0,-100.00,ESE,115,4.0,8.0,75,0.00,,,-99.99,,2013-05-08 12:51:00,
2013-05-08 09:01:00,68.0,60.0,-100.00,West,260,1.0,8.0,74,0.00,,,-99.99,,2013-05-08 13:01:00,
2013-05-08 09:11:00,68.0,59.0,-100.00,ESE,105,2.0,6.0,71,0.00,,,-99.99,,2013-05-08 13:11:00,
2013-05-08 09:21:00,68.0,58.0,-100.00,ESE,105,3.0,7.0,71,0.00,,,-99.99,,2013-05-08 13:21:00,
2013-05-08 09:32:00,69.0,59.0,-100.00,ENE,60,4.0,6.0,70,0.00,,,-99.99,,2013-05-08 13:32:00,
2013-05-08 09:42:00,69.0,58.0,-100.00,East,100,4.0,7.0,68,0.00,,,-99.99,,2013-05-08 13:42:00,
2013-05-08 09:52:00,70.0,59.0,-100.00,ENE,70,1.0,7.0,67,0.00,,,-99.99,,2013-05-08 13:52:00,
2013-05-08 10:02:00,70.0,59.0,-100.00,SE,125,1.0,6.0,67,0.00,,,-99.99,,2013-05-08 14:02:00,
2013-05-08 10:11:00,70.0,59.0,-100.00,ESE,115,3.0,8.0,67,0.00,,,-99.99,,2013-05-08 14:11:00,
2013-05-08 10:21:00,70.0,59.0,-100.00,ESE,105,6.0,12.0,67,0.00,,,-99.99,,2013-05-08 14:21:00,
2013-05-08 10:32:00,72.0,59.0,-100.00,ESE,110,2.0,11.0,65,0.00,,,-99.99,,2013-05-08 14:32:00,
2013-05-08 10:42:00,72.0,60.0,-100.00,South,180,2.0,7.0,65,0.00,,,-99.99,,2013-05-08 14:42:00,
2013-05-08 10:52:00,72.0,59.0,-100.00,South,170,3.0,14.0,64,0.00,,,-99.99,,2013-05-08 14:52:00,
2013-05-08 11:02:00,72.0,60.0,-100.00,SSE,160,4.0,11.0,64,0.00,,,-99.99,,2013-05-08 15:02:00,
2013-05-08 11:11:00,72.0,59.0,-100.00,ESE,105,10.0,17.0,63,0.00,,,-99.99,,2013-05-08 15:11:00,
2013-05-08 11:21:00,73.0,59.0,-100.00,ESE,120,7.0,12.0,62,0.00,,,-99.99,,2013-05-08 15:21:00,
2013-05-08 11:33:00,73.0,59.0,-100.00,South,170,4.0,11.0,61,0.00,,,-99.99,,2013-05-08 15:33:00,
2013-05-08 11:42:00,72.0,59.0,-100.00,SE,130,3.0,11.0,63,0.00,,,-99.99,,2013-05-08 15:42:00,
2013-05-08 11:52:00,72.0,59.0,-100.00,SSE,155,6.0,11.0,62,0.00,,,-99.99,,2013-05-08 15:52:00,
2013-05-08 12:03:00,75.0,59.0,-100.00,SE,140,3.0,11.0,58,0.00,,,-99.99,,2013-05-08 16:03:00,
2013-05-08 12:12:00,74.0,59.0,-100.00,SE,125,7.0,17.0,59,0.00,,,-99.99,,2013-05-08 16:12:00,
2013-05-08 12:23:00,74.0,59.0,-100.00,ESE,105,5.0,16.0,59,0.00,,,-99.99,,2013-05-08 16:23:00,
2013-05-08 12:33:00,75.0,58.0,-100.00,North,-999,-999.0,-999.0,55,0.00,,,-99.99,,2013-05-08 16:33:00,
2013-05-08 12:42:00,75.0,58.0,-100.00,SSE,160,4.0,12.0,55,0.00,,,-99.99,,2013-05-08 16:42:00,
2013-05-08 12:52:00,76.0,58.0,-100.00,South,175,5.0,17.0,52,0.00,,,-99.99,,2013-05-08 16:52:00,
2013-05-08 13:02:00,74.0,57.0,-100.00,SSE,155,9.0,19.0,54,0.00,,,-99.99,,2013-05-08 17:02:00,
2013-05-08 13:12:00,75.0,57.0,-100.00,SSW,195,4.0,12.0,54,0.00,,,-99.99,,2013-05-08 17:12:00,
2013-05-08 13:22:00,74.0,57.0,-100.00,SSE,165,4.0,20.0,56,0.00,,,-99.99,,2013-05-08 17:22:00,
2013-05-08 13:32:00,73.0,58.0,-100.00,SSE,155,7.0,14.0,57,0.00,,,-99.99,,2013-05-08 17:32:00,
2013-05-08 13:41:00,73.0,58.0,-100.00,SSE,155,7.0,14.0,57,0.00,,,-99.99,,2013-05-08 17:41:00,
2013-05-08 13:52:00,73.0,56.0,-100.00,SSE,160,4.0,21.0,55,0.00,,,-99.99,,2013-05-08 17:52:00,
2013-05-08 14:02:00,72.0,57.0,-100.00,SSE,165,6.0,15.0,59,0.00,,,-99.99,,2013-05-08 18:02:00,
2013-05-08 14:12:00,72.0,56.0,-100.00,SSE,165,7.0,13.0,57,0.00,,,-99.99,,2013-05-08 18:12:00,
2013-05-08 14:21:00,73.0,58.0,-100.00,ESE,115,4.0,13.0,58,0.00,,,-99.99,,2013-05-08 18:21:00,
2013-05-08 14:32:00,73.0,57.0,-100.00,ESE,105,9.0,22.0,57,0.00,,,-99.99,,2013-05-08 18:32:00,
2013-05-08 14:42:00,72.0,58.0,-100.00,SE,145,6.0,16.0,60,0.00,,,-99.99,,2013-05-08 18:42:00,
2013-05-08 14:52:00,73.0,58.0,-100.00,ESE,115,8.0,16.0,58,0.00,,,-99.99,,2013-05-08 18:52:00,
2013-05-08 15:01:00,72.0,58.0,-100.00,ESE,120,7.0,23.0,59,0.00,,,-99.99,,2013-05-08 19:01:00,
2013-05-08 15:11:00,72.0,57.0,-100.00,ESE,115,6.0,24.0,59,0.00,,,-99.99,,2013-05-08 19:11:00,
2013-05-08 15:22:00,72.0,58.0,-100.00,SSE,165,6.0,19.0,60,0.00,,,-99.99,,2013-05-08 19:22:00,
2013-05-08 15:32:00,74.0,57.0,-100.00,SE,145,6.0,15.0,56,0.00,,,-99.99,,2013-05-08 19:32:00,
2013-05-08 15:42:00,73.0,56.0,-100.00,ESE,120,5.0,20.0,55,0.00,,,-99.99,,2013-05-08 19:42:00,
2013-05-08 15:52:00,72.0,56.0,-100.00,ESE,110,6.0,17.0,56,0.00,,,-99.99,,2013-05-08 19:52:00,
2013-05-08 16:02:00,72.0,56.0,-100.00,SSE,160,6.0,14.0,57,0.00,,,-99.99,,2013-05-08 20:02:00,
2013-05-08 16:11:00,71.0,58.0,-100.00,ESE,120,6.0,16.0,65,0.01,,,-99.99,,2013-05-08 20:11:00,
2013-05-08 16:22:00,70.0,59.0,-100.00,East,100,6.0,22.0,69,0.08,,,-99.99,,2013-05-08 20:22:00,
2013-05-08 16:32:00,68.0,59.0,-100.00,SE,125,2.0,14.0,72,0.00,,,-99.99,,2013-05-08 20:32:00,
2013-05-08 16:42:00,69.0,59.0,-100.00,SSE,155,5.0,17.0,71,0.00,,,-99.99,,2013-05-08 20:42:00,
2013-05-08 16:52:00,68.0,59.0,-100.00,ESE,110,7.0,18.0,73,0.03,,,-99.99,,2013-05-08 20:52:00,
2013-05-08 17:01:00,67.0,59.0,-100.00,ESE,120,3.0,16.0,75,0.00,,,-99.99,,2013-05-08 21:01:00,
2013-05-08 17:12:00,67.0,60.0,-100.00,ESE,120,3.0,7.0,78,0.00,,,-99.99,,2013-05-08 21:12:00,
2013-05-08 17:21:00,66.0,60.0,-100.00,ESE,110,6.0,17.0,81,0.00,,,-99.99,,2013-05-08 21:21:00,
2013-05-08 17:33:00,66.0,61.0,-100.00,ESE,115,5.0,19.0,84,0.00,,,-99.99,,2013-05-08 21:33:00,
2013-05-08 17:43:00,66.0,61.0,-100.00,ESE,115,4.0,12.0,85,0.00,,,-99.99,,2013-05-08 21:43:00,
2013-05-08 17:52:00,65.0,61.0,-100.00,ESE,120,7.0,12.0,85,0.00,,,-99.99,,2013-05-08 21:52:00,
2013-05-08 18:03:00,65.0,61.0,-100.00,ESE,110,7.0,12.0,85,0.00,,,-99.99,,2013-05-08 22:03:00,
2013-05-08 18:12:00,65.0,61.0,-100.00,ESE,105,6.0,12.0,85,0.00,,,-99.99,,2013-05-08 22:12:00,
2013-05-08 18:22:00,65.0,61.0,-100.00,ESE,105,4.0,12.0,85,0.00,,,-99.99,,2013-05-08 22:22:00,
2013-05-08 18:33:00,65.0,60.0,-100.00,ESE,105,4.0,12.0,84,0.00,,,-99.99,,2013-05-08 22:33:00,
2013-05-08 18:42:00,65.0,61.0,-100.00,ESE,110,4.0,10.0,85,0.00,,,-99.99,,2013-05-08 22:42:00,
2013-05-08 18:52:00,65.0,61.0,-100.00,ESE,105,2.0,9.0,86,0.00,,,-99.99,,2013-05-08 22:52:00,
2013-05-08 19:01:00,65.0,61.0,-100.00,ESE,115,6.0,10.0,86,0.00,,,-99.99,,2013-05-08 23:01:00,
2013-05-08 19:11:00,65.0,60.0,-100.00,ESE,115,7.0,10.0,85,0.00,,,-99.99,,2013-05-08 23:11:00,
2013-05-08 19:22:00,64.0,60.0,-100.00,ESE,120,4.0,11.0,85,0.00,,,-99.99,,2013-05-08 23:22:00,
2013-05-08 19:32:00,64.0,59.0,-100.00,ESE,110,9.0,14.0,85,0.00,,,-99.99,,2013-05-08 23:32:00,
2013-05-08 19:42:00,64.0,59.0,-100.00,ESE,115,4.0,12.0,85,0.00,,,-99.99,,2013-05-08 23:42:00,
2013-05-08 19:52:00,63.0,59.0,-100.00,SE,145,4.0,13.0,85,0.00,,,-99.99,,2013-05-08 23:52:00,
2013-05-08 20:02:00,63.0,59.0,-100.00,SSE,155,2.0,9.0,85,0.00,,,-99.99,,2013-05-09 00:02:00,
2013-05-08 20:12:00,63.0,59.0,-100.00,ESE,115,2.0,9.0,85,0.00,,,-99.99,,2013-05-09 00:12:00,
2013-05-08 20:21:00,63.0,59.0,-100.00,ESE,110,2.0,8.0,86,0.00,,,-99.99,,2013-05-09 00:21:00,
2013-05-08 20:32:00,63.0,59.0,-100.00,ESE,115,4.0,10.0,86,0.00,,,-99.99,,2013-05-09 00:32:00,
2013-05-08 20:42:00,63.0,59.0,-100.00,ESE,105,2.0,7.0,87,0.00,,,-99.99,,2013-05-09 00:42:00,
2013-05-08 20:52:00,63.0,59.0,-100.00,East,100,5.0,11.0,88,0.00,,,-99.99,,2013-05-09 00:52:00,
2013-05-08 21:01:00,62.0,59.0,-100.00,ESE,115,2.0,8.0,88,0.00,,,-99.99,,2013-05-09 01:01:00,
2013-05-08 21:12:00,62.0,59.0,-100.00,ESE,110,6.0,10.0,89,0.00,,,-99.99,,2013-05-09 01:12:00,
2013-05-08 21:22:00,62.0,59.0,-100.00,ESE,120,4.0,11.0,89,0.00,,,-99.99,,2013-05-09 01:22:00,
2013-05-08 21:32:00,62.0,59.0,-100.00,ESE,115,6.0,12.0,89,0.00,,,-99.99,,2013-05-09 01:32:00,
2013-05-08 21:42:00,62.0,59.0,-100.00,East,95,2.0,7.0,89,0.00,,,-99.99,,2013-05-09 01:42:00,
2013-05-08 21:52:00,62.0,59.0,-100.00,ESE,105,6.0,10.0,89,0.00,,,-99.99,,2013-05-09 01:52:00,
2013-05-08 22:02:00,62.0,59.0,-100.00,ESE,110,4.0,8.0,90,0.00,,,-99.99,,2013-05-09 02:02:00,
2013-05-08 22:11:00,62.0,59.0,-100.00,East,80,2.0,6.0,90,0.00,,,-99.99,,2013-05-09 02:11:00,
2013-05-08 22:22:00,62.0,59.0,-100.00,ESE,110,3.0,9.0,91,0.00,,,-99.99,,2013-05-09 02:22:00,
2013-05-08 22:33:00,62.0,59.0,-100.00,ESE,105,1.0,7.0,91,0.00,,,-99.99,,2013-05-09 02:33:00,
2013-05-08 22:42:00,62.0,59.0,-100.00,ESE,105,1.0,7.0,91,0.00,,,-99.99,,2013-05-09 02:42:00,
2013-05-08 22:52:00,62.0,59.0,-100.00,ESE,105,1.0,7.0,91,0.00,,,-99.99,,2013-05-09 02:52:00,
2013-05-08 23:11:00,62.0,59.0,-100.00,ESE,105,3.0,6.0,91,0.00,,,-99.99,,2013-05-09 03:11:00,
2013-05-08 23:21:00,62.0,59.0,-100.00,East,100,2.0,7.0,91,0.00,,,-99.99,,2013-05-09 03:21:00,
2013-05-08 23:33:00,61.0,59.0,-100.00,ESE,105,4.0,7.0,91,0.00,,,-99.99,,2013-05-09 03:33:00,
2013-05-08 23:43:00,61.0,59.0,-100.00,ESE,115,4.0,7.0,92,0.18,,,-99.99,,2013-05-09 03:43:00,
2013-05-08 23:52:00,60.0,58.0,-100.00,East,100,2.0,7.0,93,0.00,,,-99.99,,2013-05-09 03:52:00,